Find Starlink 4567

NORAD ID: 53970 Int'l Des: 2022-125 Owner: SPXS Country: US Constellation: starlink operational
LEOCIRCULAR

当前视图

正在加载3D地球...

About Starlink 4567

Starlink 4567 (NORAD 53970) is a starlink constellation satellite (v1.5) launched Oct 5, 2022 by SPXS of US. It operates in LEO, CIRCULAR orbit with a mass of 305.00 kg.

关于 Starlink 4567

正在加载描述...

即将过境

Passes for default location (London). Set your location on the main map for personalized predictions.

高度历史

Loading altitude history...

两行轨道根数

1 53970U 22125G 26170.18160539 -.00000191 00000-0 60647-5 0 9995
2 53970 53.1608 123.4386 0001331 83.6105 276.5038 15.08829841204729
Epoch: Jun 19, 2026 • Age: 6 hours

当前状态

高度 559.1 km
速度 7.58 km/s
星下点 -53.05°S, 22.58°W
发射日期 Oct 5, 2022
运行时间 3.7 years
类型 internet

技术详情

分类 Payload
质量 305.00 kg
干质量 290.00 kg
总质量 305.00 kg
长度 0.20 m
直径 2.80 m
跨度 9.00 m
形状 Box + pan
制造商 SPXS
平台类型 Starlink
阶段状态 In Orbit
所有者/国家 SPXS/US

Most Searched